Location: Bacharowice
(49.9333°N, 19.5833°E)
Time: 05:46:19
(UTC+00:00)

Cosmos 1908 Rocket - Pass Details

Date: 26 September 2021
Orbit: 605 x 633 km, 82.5° (Epoch: 17 October)

Event Time Altitude Azimuth Distance (km) Brightness Sun altitude
Rises 18:35:17 0° 223° (SW) 2,919 7.3 -20.4°
Reaches altitude 10° 18:37:54 10° 238° (WSW) 2,014 6.6 -20.8°
Maximum altitude 18:41:31 24° 292° (WNW) 1,323 6.1 -21.3°
Drops below altitude 10° 18:45:09 10° 346° (NNW) 2,019 6.7 -21.8°
Sets 18:47:46 0° 1° (N) 2,927 7.4 -22.2°
